Laredo, TX

4:34 PM CDT on April 25, 2017 (GMT -0500)
Laredo International

Weather History for KLRD - September, 2012

Change the Weather History Date:

Sunday, September 23, 2012

  Actual Average Record
Temperature  
Mean Temperature 86 °F 81 °F  
Max Temperature 98 °F 91 °F 103 °F (2005)
Min Temperature 73 °F 71 °F 52 °F (1975)
Degree Days  
Heating Degree Days 0 0  
Month to date heating degree days 0 0  
Since 1 July heating degree days 0 0  
Cooling Degree Days 21 16  
Month to date cooling degree days 465 434  
Year to date cooling degree days 4293 3677  
Growing Degree Days 35 (Base 50)    
Moisture  
Dew Point 67 °F    
Average Humidity 60    
Maximum Humidity 87    
Minimum Humidity 26    
Precipitation  
Precipitation 0.00 in 0.09 in 2.95 in (1946)
Month to date precipitation 0.29 2.32  
Year to date precipitation 6.19 15.31  
Sea Level Pressure  
Sea Level Pressure 30.09 in    
Wind  
Wind Speed 8 mph (SE)    
Max Wind Speed 33 mph    
Max Gust Speed 39 mph    
Visibility 10 miles    
Events      
T = Trace of Precipitation, MM = Missing Value Source: NWS Daily Summary

Daily Weather History Graph

Daily Weather History Graph

Search for Another Location

Airport or City:

Trip Planner

Search our weather history database for the weather conditions in past years. The results will help you decide how hot, cold, wet, or windy it might be!

Date:

Astronomy

Sep. 23, 2012 Rise Set
Actual Time 7:27 AM CDT 7:32 PM CDT
Civil Twilight 7:03 AM CDT 7:55 PM CDT
Nautical Twilight 6:36 AM CDT 8:22 PM CDT
Astronomical Twilight 6:09 AM CDT 8:50 PM CDT
Moon 3:08 PM CDT (9/23) 1:09 AM CDT (9/23)
Length of Visible Light 12h 52m
Length of Day
12h 05m
First Quarter, 60% of the Moon is Illuminated
Sep 23
First Quarter
Sep 29
Full
Oct 8
Last Quarter
Oct 15
New
Oct 21
First Quarter

Hourly Weather History & Observations

Time (CDT) Temp. Heat Index Dew Point Humidity Pressure Visibility Wind Dir Wind Speed Gust Speed Precip Events Conditions
12:56 AM 81.0 °F 84.4 °F 70.0 °F 69% 30.07 in 10.0 mi SE 10.4 mph - N/A   Partly Cloudy
1:56 AM 79.9 °F - 70.0 °F 72% 30.07 in 10.0 mi SSE 8.1 mph - N/A   Mostly Cloudy
2:56 AM 79.0 °F - 70.9 °F 76% 30.07 in 10.0 mi SE 5.8 mph - N/A   Partly Cloudy
3:56 AM 77.0 °F - 70.0 °F 79% 30.07 in 10.0 mi East 4.6 mph - N/A   Clear
4:56 AM 74.8 °F - 70.0 °F 85% 30.07 in 10.0 mi ENE 4.6 mph - N/A   Partly Cloudy
5:56 AM 73.9 °F - 68.9 °F 84% 30.08 in 10.0 mi Calm Calm - N/A   Clear
6:56 AM 73.9 °F - 70.0 °F 87% 30.09 in 10.0 mi ENE 5.8 mph - N/A   Clear
7:56 AM 73.9 °F - 70.0 °F 87% 30.12 in 10.0 mi ENE 6.9 mph - N/A   Clear
8:56 AM 77.0 °F - 70.9 °F 81% 30.14 in 10.0 mi East 6.9 mph - N/A   Clear
9:56 AM 81.9 °F 86.0 °F 70.9 °F 69% 30.14 in 10.0 mi SE 6.9 mph - N/A   Partly Cloudy
10:56 AM 86.0 °F 89.7 °F 68.9 °F 56% 30.14 in 10.0 mi SSE 6.9 mph - N/A   Scattered Clouds
11:56 AM 88.9 °F 91.8 °F 66.9 °F 48% 30.14 in 10.0 mi SE 5.8 mph - N/A   Scattered Clouds
12:56 PM 90.9 °F 92.3 °F 63.9 °F 41% 30.12 in 10.0 mi SSE 9.2 mph 18.4 mph N/A   Scattered Clouds
1:56 PM 91.9 °F 91.8 °F 61.0 °F 35% 30.10 in 10.0 mi SE 5.8 mph - N/A   Partly Cloudy
2:56 PM 93.9 °F 93.6 °F 59.9 °F 32% 30.06 in 10.0 mi SE 6.9 mph - N/A   Scattered Clouds
3:56 PM 95.0 °F 94.0 °F 57.9 °F 29% 30.04 in 10.0 mi SSE 5.8 mph - N/A   Scattered Clouds
4:56 PM 97.0 °F 95.7 °F 56.8 °F 26% 30.02 in 10.0 mi Variable 4.6 mph - N/A   Scattered Clouds
5:56 PM 97.0 °F 95.7 °F 56.8 °F 26% 30.02 in 10.0 mi SSE 6.9 mph - N/A   Clear
6:41 PM 91.4 °F 95.4 °F 68.0 °F 46% 30.09 in 8.0 mi SE 27.6 mph 39.1 mph N/A   Partly Cloudy
6:56 PM 86.0 °F 89.4 °F 68.0 °F 55% 30.07 in 10.0 mi SSE 27.6 mph 38.0 mph N/A   Partly Cloudy
7:56 PM 82.9 °F 84.6 °F 64.9 °F 54% 30.07 in 10.0 mi SSE 11.5 mph - N/A   Partly Cloudy
8:56 PM 79.9 °F - 68.0 °F 67% 30.09 in 10.0 mi South 12.7 mph - N/A   Clear
9:56 PM 79.0 °F - 66.9 °F 66% 30.12 in 10.0 mi SSE 8.1 mph - N/A   Clear
10:56 PM 78.8 °F - 66.2 °F 65% 30.16 in 10.0 mi SSE 8.1 mph - N/A   Clear
11:56 PM 77.0 °F - 66.9 °F 71% 30.13 in 10.0 mi SSE 6.9 mph - N/A   Clear